Time,TemperatureF,DewpointF,PressureIn,WindDirection,WindDirectionDegrees,WindSpeedMPH,WindSpeedGustMPH,Humidity,HourlyPrecipIn,Conditions,Clouds,dailyrainin,SoftwareType,DateUTC
2013-04-08 00:02:00,45.0,13.0,-100.00,SW,225,9.0,10.0,26,-99.99,,,-99.99,,2013-04-08 06:02:00,
2013-04-08 00:12:00,44.0,11.0,-100.00,SSE,155,3.0,7.0,25,-99.99,,,-99.99,,2013-04-08 06:12:00,
2013-04-08 00:21:00,44.0,11.0,-100.00,SW,234,8.0,8.0,25,-99.99,,,-99.99,,2013-04-08 06:21:00,
2013-04-08 00:32:00,44.0,10.0,-100.00,West,261,10.0,10.0,24,-99.99,,,-99.99,,2013-04-08 06:32:00,
2013-04-08 00:42:00,44.0,11.0,-100.00,West,270,9.0,10.0,24,-99.99,,,-99.99,,2013-04-08 06:42:00,
2013-04-08 00:52:00,44.0,11.0,-100.00,West,266,9.0,11.0,25,-99.99,,,-99.99,,2013-04-08 06:52:00,
2013-04-08 01:02:00,47.0,11.0,-100.00,WSW,257,10.0,11.0,22,-99.99,,,-99.99,,2013-04-08 07:02:00,
2013-04-08 01:12:00,46.0,11.0,-100.00,WSW,251,7.0,10.0,23,-99.99,,,-99.99,,2013-04-08 07:12:00,
2013-04-08 01:22:00,45.0,11.0,-100.00,West,260,7.0,10.0,23,-99.99,,,-99.99,,2013-04-08 07:22:00,
2013-04-08 01:32:00,45.0,11.0,-100.00,West,260,7.0,10.0,23,-99.99,,,-99.99,,2013-04-08 07:32:00,
2013-04-08 01:42:00,46.0,11.0,-100.00,WSW,252,10.0,10.0,23,-99.99,,,-99.99,,2013-04-08 07:42:00,
2013-04-08 01:52:00,49.0,10.0,-100.00,West,266,4.0,8.0,20,-99.99,,,-99.99,,2013-04-08 07:52:00,
2013-04-08 02:02:00,48.0,11.0,-100.00,WSW,240,7.0,9.0,21,-99.99,,,-99.99,,2013-04-08 08:02:00,
2013-04-08 02:11:00,48.0,11.0,-100.00,WSW,240,7.0,9.0,21,-99.99,,,-99.99,,2013-04-08 08:11:00,
2013-04-08 02:32:00,48.0,11.0,-100.00,WSW,240,7.0,9.0,21,-99.99,,,-99.99,,2013-04-08 08:32:00,
2013-04-08 02:42:00,47.0,11.0,-100.00,WSW,255,10.0,10.0,23,-99.99,,,-99.99,,2013-04-08 08:42:00,
2013-04-08 02:52:00,47.0,11.0,-100.00,WSW,255,10.0,10.0,23,-99.99,,,-99.99,,2013-04-08 08:52:00,
2013-04-08 03:02:00,47.0,11.0,-100.00,WSW,258,10.0,11.0,22,-99.99,,,-99.99,,2013-04-08 09:02:00,
2013-04-08 03:12:00,47.0,11.0,-100.00,WSW,258,10.0,11.0,22,-99.99,,,-99.99,,2013-04-08 09:12:00,
2013-04-08 03:22:00,46.0,12.0,-100.00,West,259,11.0,11.0,24,-99.99,,,-99.99,,2013-04-08 09:22:00,
2013-04-08 03:32:00,46.0,12.0,-100.00,West,263,8.0,8.0,24,-99.99,,,-99.99,,2013-04-08 09:32:00,
2013-04-08 03:42:00,47.0,12.0,-100.00,West,268,12.0,12.0,23,-99.99,,,-99.99,,2013-04-08 09:42:00,
2013-04-08 03:52:00,48.0,12.0,-100.00,West,270,8.0,9.0,22,-99.99,,,-99.99,,2013-04-08 09:52:00,
2013-04-08 04:03:00,48.0,11.0,-100.00,West,263,4.0,5.0,22,-99.99,,,-99.99,,2013-04-08 10:03:00,
2013-04-08 04:12:00,49.0,11.0,-100.00,WSW,257,5.0,5.0,21,-99.99,,,-99.99,,2013-04-08 10:12:00,
2013-04-08 04:23:00,48.0,12.0,-100.00,SW,224,3.0,4.0,22,-99.99,,,-99.99,,2013-04-08 10:23:00,
2013-04-08 04:32:00,47.0,12.0,-100.00,NNW,334,4.0,4.0,24,-99.99,,,-99.99,,2013-04-08 10:32:00,
2013-04-08 04:42:00,47.0,12.0,-100.00,NNW,330,5.0,6.0,23,-99.99,,,-99.99,,2013-04-08 10:42:00,
2013-04-08 04:52:00,48.0,11.0,-100.00,WNW,282,3.0,5.0,22,-99.99,,,-99.99,,2013-04-08 10:52:00,
2013-04-08 05:02:00,49.0,13.0,-100.00,WSW,237,6.0,7.0,23,-99.99,,,-99.99,,2013-04-08 11:02:00,
2013-04-08 05:12:00,48.0,14.0,-100.00,WSW,257,7.0,7.0,25,-99.99,,,-99.99,,2013-04-08 11:12:00,
2013-04-08 05:22:00,49.0,14.0,-100.00,SE,139,3.0,3.0,23,-99.99,,,-99.99,,2013-04-08 11:22:00,
2013-04-08 05:32:00,49.0,14.0,-100.00,SE,139,3.0,3.0,23,-99.99,,,-99.99,,2013-04-08 11:32:00,
2013-04-08 05:42:00,46.0,14.0,-100.00,ENE,63,8.0,8.0,27,-99.99,,,-99.99,,2013-04-08 11:42:00,
2013-04-08 05:52:00,46.0,14.0,-100.00,ENE,63,8.0,8.0,27,-99.99,,,-99.99,,2013-04-08 11:52:00,
2013-04-08 06:01:00,43.0,13.0,-100.00,NNE,29,4.0,4.0,29,-99.99,,,-99.99,,2013-04-08 12:01:00,
2013-04-08 06:12:00,44.0,14.0,-100.00,North,349,1.0,4.0,29,-99.99,,,-99.99,,2013-04-08 12:12:00,
2013-04-08 06:22:00,44.0,14.0,-100.00,NE,51,7.0,7.0,28,-99.99,,,-99.99,,2013-04-08 12:22:00,
2013-04-08 06:32:00,46.0,14.0,-100.00,NE,50,4.0,6.0,26,-99.99,,,-99.99,,2013-04-08 12:32:00,
2013-04-08 06:42:00,47.0,14.0,-100.00,ENE,62,6.0,7.0,26,-99.99,,,-99.99,,2013-04-08 12:42:00,
2013-04-08 06:52:00,45.0,15.0,-100.00,NNW,342,6.0,6.0,28,-99.99,,,-99.99,,2013-04-08 12:52:00,
2013-04-08 07:02:00,46.0,16.0,-100.00,NNW,328,4.0,5.0,28,-99.99,,,-99.99,,2013-04-08 13:02:00,
2013-04-08 07:12:00,47.0,15.0,-100.00,NNW,342,5.0,7.0,27,-99.99,,,-99.99,,2013-04-08 13:12:00,
2013-04-08 07:22:00,46.0,16.0,-100.00,ENE,63,7.0,8.0,30,-99.99,,,-99.99,,2013-04-08 13:22:00,
2013-04-08 07:32:00,44.0,18.0,-100.00,ENE,63,10.0,11.0,34,-99.99,,,-99.99,,2013-04-08 13:32:00,
2013-04-08 07:42:00,44.0,17.0,-100.00,NE,51,10.0,10.0,34,-99.99,,,-99.99,,2013-04-08 13:42:00,
2013-04-08 07:52:00,45.0,16.0,-100.00,NNE,15,6.0,9.0,31,-99.99,,,-99.99,,2013-04-08 13:52:00,
2013-04-08 08:02:00,44.0,16.0,-100.00,North,5,9.0,10.0,31,-99.99,,,-99.99,,2013-04-08 14:02:00,
2013-04-08 08:12:00,45.0,17.0,-100.00,ENE,60,5.0,9.0,31,-99.99,,,-99.99,,2013-04-08 14:12:00,
2013-04-08 08:22:00,44.0,18.0,-100.00,ENE,67,6.0,6.0,35,-99.99,,,-99.99,,2013-04-08 14:22:00,
2013-04-08 08:32:00,43.0,19.0,-100.00,NNE,21,4.0,5.0,38,-99.99,,,-99.99,,2013-04-08 14:32:00,
2013-04-08 08:42:00,43.0,19.0,-100.00,NNE,21,4.0,5.0,38,-99.99,,,-99.99,,2013-04-08 14:42:00,
2013-04-08 08:52:00,49.0,18.0,-100.00,SSW,193,20.0,21.0,28,-99.99,,,-99.99,,2013-04-08 14:52:00,
2013-04-08 09:02:00,51.0,19.0,-100.00,SSW,195,23.0,27.0,28,-99.99,,,-99.99,,2013-04-08 15:02:00,
2013-04-08 09:12:00,51.0,19.0,-100.00,South,186,20.0,29.0,27,-99.99,,,-99.99,,2013-04-08 15:12:00,
2013-04-08 09:22:00,51.0,18.0,-100.00,South,185,14.0,15.0,27,-99.99,,,-99.99,,2013-04-08 15:22:00,
2013-04-08 09:33:00,52.0,18.0,-100.00,South,182,20.0,23.0,26,-99.99,,,-99.99,,2013-04-08 15:33:00,
2013-04-08 09:42:00,52.0,18.0,-100.00,South,182,20.0,23.0,26,-99.99,,,-99.99,,2013-04-08 15:42:00,
2013-04-08 09:52:00,52.0,19.0,-100.00,SSW,200,28.0,33.0,26,-99.99,,,-99.99,,2013-04-08 15:52:00,
2013-04-08 10:02:00,52.0,19.0,-100.00,SSW,201,23.0,31.0,27,-99.99,,,-99.99,,2013-04-08 16:02:00,
2013-04-08 10:12:00,52.0,19.0,-100.00,SSW,200,23.0,31.0,26,-99.99,,,-99.99,,2013-04-08 16:12:00,
2013-04-08 10:22:00,52.0,19.0,-100.00,South,187,26.0,30.0,26,-99.99,,,-99.99,,2013-04-08 16:22:00,
2013-04-08 10:32:00,52.0,18.0,-100.00,SSW,195,25.0,30.0,26,-99.99,,,-99.99,,2013-04-08 16:32:00,
2013-04-08 10:42:00,52.0,18.0,-100.00,SSW,195,25.0,30.0,26,-99.99,,,-99.99,,2013-04-08 16:42:00,
2013-04-08 10:52:00,53.0,21.0,-100.00,South,187,24.0,30.0,27,-99.99,,,-99.99,,2013-04-08 16:52:00,
2013-04-08 11:02:00,53.0,20.0,-100.00,South,178,27.0,31.0,27,-99.99,,,-99.99,,2013-04-08 17:02:00,
2013-04-08 11:12:00,55.0,20.0,-100.00,South,174,29.0,33.0,25,-99.99,,,-99.99,,2013-04-08 17:12:00,
2013-04-08 11:22:00,55.0,18.0,-100.00,South,172,29.0,32.0,23,-99.99,,,-99.99,,2013-04-08 17:22:00,
2013-04-08 11:32:00,55.0,17.0,-100.00,South,177,30.0,42.0,21,-99.99,,,-99.99,,2013-04-08 17:32:00,
2013-04-08 11:42:00,55.0,17.0,-100.00,South,191,26.0,28.0,21,-99.99,,,-99.99,,2013-04-08 17:42:00,
2013-04-08 11:52:00,53.0,17.0,-100.00,SSW,203,35.0,43.0,23,-99.99,,,-99.99,,2013-04-08 17:52:00,
2013-04-08 12:02:00,52.0,16.0,-100.00,SSW,210,26.0,32.0,24,-99.99,,,-99.99,,2013-04-08 18:02:00,
2013-04-08 12:11:00,52.0,19.0,-100.00,SSW,211,14.0,22.0,26,-99.99,,,-99.99,,2013-04-08 18:11:00,
2013-04-08 12:22:00,52.0,19.0,-100.00,SSW,211,14.0,22.0,26,-99.99,,,-99.99,,2013-04-08 18:22:00,
2013-04-08 12:32:00,52.0,19.0,-100.00,SW,217,12.0,17.0,26,-99.99,,,-99.99,,2013-04-08 18:32:00,
2013-04-08 12:42:00,52.0,20.0,-100.00,SW,214,11.0,22.0,27,-99.99,,,-99.99,,2013-04-08 18:42:00,
2013-04-08 12:52:00,52.0,20.0,-100.00,WSW,244,16.0,21.0,28,-99.99,,,-99.99,,2013-04-08 18:52:00,
2013-04-08 13:02:00,52.0,21.0,-100.00,SW,222,15.0,19.0,29,-99.99,,,-99.99,,2013-04-08 19:02:00,
2013-04-08 13:12:00,48.0,24.0,-100.00,South,187,22.0,32.0,38,-99.99,,,-99.99,,2013-04-08 19:12:00,
2013-04-08 13:22:00,48.0,24.0,-100.00,South,187,22.0,32.0,38,-99.99,,,-99.99,,2013-04-08 19:22:00,
2013-04-08 13:33:00,47.0,25.0,-100.00,SSE,166,25.0,27.0,41,-99.99,,,-99.99,,2013-04-08 19:33:00,
2013-04-08 13:42:00,45.0,25.0,-100.00,South,170,25.0,26.0,45,-99.99,,,-99.99,,2013-04-08 19:42:00,
2013-04-08 13:52:00,45.0,25.0,-100.00,South,170,25.0,26.0,45,-99.99,,,-99.99,,2013-04-08 19:52:00,
2013-04-08 14:02:00,45.0,25.0,-100.00,SSE,162,21.0,26.0,45,-99.99,,,-99.99,,2013-04-08 20:02:00,
2013-04-08 14:12:00,45.0,26.0,-100.00,SSE,147,20.0,24.0,47,-99.99,,,-99.99,,2013-04-08 20:12:00,
2013-04-08 14:22:00,45.0,26.0,-100.00,SSE,156,15.0,18.0,46,-99.99,,,-99.99,,2013-04-08 20:22:00,
2013-04-08 14:32:00,46.0,23.0,-100.00,South,184,14.0,18.0,40,-99.99,,,-99.99,,2013-04-08 20:32:00,
2013-04-08 14:42:00,43.0,29.0,-100.00,SE,138,16.0,16.0,58,-99.99,,,-99.99,,2013-04-08 20:42:00,
2013-04-08 14:52:00,41.0,30.0,-100.00,SE,144,9.0,12.0,64,-99.99,,,-99.99,,2013-04-08 20:52:00,
2013-04-08 15:01:00,42.0,29.0,-100.00,SSE,153,9.0,12.0,61,-99.99,,,-99.99,,2013-04-08 21:01:00,
2013-04-08 15:12:00,43.0,28.0,-100.00,South,179,5.0,7.0,56,-99.99,,,-99.99,,2013-04-08 21:12:00,
2013-04-08 15:22:00,44.0,24.0,-100.00,SSW,192,7.0,8.0,45,-99.99,,,-99.99,,2013-04-08 21:22:00,
2013-04-08 15:32:00,44.0,24.0,-100.00,SSW,205,8.0,10.0,44,-99.99,,,-99.99,,2013-04-08 21:32:00,
2013-04-08 15:42:00,45.0,26.0,-100.00,SSW,201,10.0,17.0,46,-99.99,,,-99.99,,2013-04-08 21:42:00,
2013-04-08 15:52:00,45.0,27.0,-100.00,SSW,198,13.0,14.0,48,-99.99,,,-99.99,,2013-04-08 21:52:00,
2013-04-08 16:02:00,44.0,26.0,-100.00,South,187,12.0,13.0,47,-99.99,,,-99.99,,2013-04-08 22:02:00,
2013-04-08 16:12:00,45.0,26.0,-100.00,SW,219,8.0,10.0,47,-99.99,,,-99.99,,2013-04-08 22:12:00,
2013-04-08 16:22:00,45.0,25.0,-100.00,SE,142,6.0,10.0,45,-99.99,,,-99.99,,2013-04-08 22:22:00,
2013-04-08 16:32:00,45.0,24.0,-100.00,NNE,33,4.0,6.0,43,-99.99,,,-99.99,,2013-04-08 22:32:00,
2013-04-08 16:42:00,45.0,24.0,-100.00,NNE,33,4.0,6.0,43,-99.99,,,-99.99,,2013-04-08 22:42:00,
2013-04-08 16:52:00,47.0,26.0,-100.00,ENE,74,5.0,6.0,42,-99.99,,,-99.99,,2013-04-08 22:52:00,
2013-04-08 17:02:00,46.0,25.0,-100.00,NW,324,3.0,11.0,44,-99.99,,,-99.99,,2013-04-08 23:02:00,
2013-04-08 17:12:00,46.0,25.0,-100.00,ENE,74,7.0,12.0,43,-99.99,,,-99.99,,2013-04-08 23:12:00,
2013-04-08 17:22:00,46.0,25.0,-100.00,ENE,74,7.0,12.0,43,-99.99,,,-99.99,,2013-04-08 23:22:00,
2013-04-08 17:32:00,45.0,27.0,-100.00,ENE,58,13.0,15.0,48,-99.99,,,-99.99,,2013-04-08 23:32:00,
2013-04-08 17:42:00,45.0,27.0,-100.00,East,80,10.0,14.0,49,-99.99,,,-99.99,,2013-04-08 23:42:00,
2013-04-08 17:52:00,45.0,28.0,-100.00,NE,48,11.0,13.0,50,-99.99,,,-99.99,,2013-04-08 23:52:00,
2013-04-08 18:02:00,45.0,29.0,-100.00,ENE,72,9.0,12.0,53,-99.99,,,-99.99,,2013-04-09 00:02:00,
2013-04-08 18:12:00,45.0,29.0,-100.00,ENE,72,9.0,12.0,53,-99.99,,,-99.99,,2013-04-09 00:12:00,
2013-04-08 18:22:00,42.0,31.0,-100.00,North,355,6.0,10.0,63,-99.99,,,-99.99,,2013-04-09 00:22:00,
2013-04-08 18:32:00,39.0,34.0,-100.00,SW,227,10.0,12.0,82,-99.99,,,-99.99,,2013-04-09 00:32:00,
2013-04-08 18:42:00,39.0,34.0,-100.00,SW,227,10.0,12.0,82,-99.99,,,-99.99,,2013-04-09 00:42:00,
2013-04-08 18:52:00,34.0,32.0,-100.00,West,269,7.0,7.0,91,-99.99,,,-99.99,,2013-04-09 00:52:00,
2013-04-08 19:02:00,34.0,33.0,-100.00,WNW,284,7.0,8.0,93,-99.99,,,-99.99,,2013-04-09 01:02:00,
2013-04-08 19:12:00,34.0,33.0,-100.00,NW,312,5.0,7.0,94,-99.99,,,-99.99,,2013-04-09 01:12:00,
2013-04-08 19:22:00,34.0,33.0,-100.00,West,272,6.0,6.0,93,-99.99,,,-99.99,,2013-04-09 01:22:00,
2013-04-08 19:32:00,34.0,32.0,-100.00,NNW,339,8.0,11.0,94,-99.99,,,-99.99,,2013-04-09 01:32:00,
2013-04-08 19:42:00,33.0,32.0,-100.00,NW,325,10.0,10.0,95,-99.99,,,-99.99,,2013-04-09 01:42:00,
2013-04-08 19:52:00,33.0,32.0,-100.00,North,352,8.0,11.0,96,-99.99,,,-99.99,,2013-04-09 01:52:00,
2013-04-08 20:02:00,34.0,32.0,-100.00,North,7,5.0,8.0,95,-99.99,,,-99.99,,2013-04-09 02:02:00,
2013-04-08 20:12:00,34.0,32.0,-100.00,NNE,21,4.0,4.0,94,-99.99,,,-99.99,,2013-04-09 02:12:00,
2013-04-08 20:22:00,33.0,32.0,-100.00,NNE,18,4.0,5.0,95,-99.99,,,-99.99,,2013-04-09 02:22:00,
2013-04-08 20:32:00,33.0,32.0,-100.00,NW,320,0.0,2.0,95,-99.99,,,-99.99,,2013-04-09 02:32:00,
2013-04-08 20:42:00,33.0,32.0,-100.00,East,97,0.0,2.0,96,-99.99,,,-99.99,,2013-04-09 02:42:00,
2013-04-08 20:52:00,33.0,32.0,-100.00,East,85,6.0,7.0,96,-99.99,,,-99.99,,2013-04-09 02:52:00,
2013-04-08 21:02:00,32.0,32.0,-100.00,East,90,3.0,7.0,96,-99.99,,,-99.99,,2013-04-09 03:02:00,
2013-04-08 21:12:00,32.0,32.0,-100.00,NE,37,5.0,7.0,97,-99.99,,,-99.99,,2013-04-09 03:12:00,
2013-04-08 21:21:00,32.0,32.0,-100.00,NE,37,5.0,7.0,97,-99.99,,,-99.99,,2013-04-09 03:21:00,
2013-04-08 21:32:00,32.0,32.0,-100.00,NNE,31,4.0,5.0,97,-99.99,,,-99.99,,2013-04-09 03:32:00,
2013-04-08 21:42:00,32.0,32.0,-100.00,NNE,17,0.0,3.0,97,-99.99,,,-99.99,,2013-04-09 03:42:00,
2013-04-08 21:52:00,32.0,32.0,-100.00,NNE,25,0.0,3.0,97,-99.99,,,-99.99,,2013-04-09 03:52:00,
2013-04-08 22:02:00,32.0,32.0,-100.00,North,0,0.0,0.0,97,-99.99,,,-99.99,,2013-04-09 04:02:00,
2013-04-08 22:12:00,32.0,32.0,-100.00,North,0,0.0,0.0,97,-99.99,,,-99.99,,2013-04-09 04:12:00,
2013-04-08 22:22:00,32.0,32.0,-100.00,North,0,0.0,0.0,98,-99.99,,,-99.99,,2013-04-09 04:22:00,
2013-04-08 22:32:00,32.0,32.0,-100.00,North,0,0.0,0.0,98,-99.99,,,-99.99,,2013-04-09 04:32:00,
2013-04-08 22:42:00,32.0,32.0,-100.00,North,0,0.0,0.0,98,-99.99,,,-99.99,,2013-04-09 04:42:00,
2013-04-08 22:52:00,32.0,32.0,-100.00,North,0,0.0,0.0,98,-99.99,,,-99.99,,2013-04-09 04:52:00,
2013-04-08 23:02:00,32.0,32.0,-100.00,North,0,0.0,0.0,98,-99.99,,,-99.99,,2013-04-09 05:02:00,
2013-04-08 23:12:00,32.0,32.0,-100.00,North,0,0.0,0.0,98,-99.99,,,-99.99,,2013-04-09 05:12:00,
2013-04-08 23:22:00,32.0,32.0,-100.00,North,0,0.0,0.0,98,-99.99,,,-99.99,,2013-04-09 05:22:00,
2013-04-08 23:32:00,32.0,32.0,-100.00,North,0,0.0,0.0,98,-99.99,,,-99.99,,2013-04-09 05:32:00,
2013-04-08 23:42:00,32.0,32.0,-100.00,North,0,0.0,0.0,98,-99.99,,,-99.99,,2013-04-09 05:42:00,
2013-04-08 23:52:00,32.0,32.0,-100.00,North,0,0.0,0.0,98,-99.99,,,-99.99,,2013-04-09 05:52:00,